Tracking 28096 objects as of 28-Sep-2023
HD Live streaming from Space Station
objects crossing your sky now

OPS 9346 (IDSCS 25)

Track OPS 9346 (IDSCS 25) now!
OPS 9346 (IDSCS 25) is classified as:


NORAD ID: 3289
Int'l Code: 1968-050F
Perigee: 33,748.1 km
Apogee: 34,121.9 km
Inclination: 5.0 °
Period: 1,342.2 minutes
Semi major axis: 40306 km
RCS: 0.3981 m2 (medium)
Launch date: June 13, 1968
Source: United States (US)
Launch site: AIR FORCE EASTERN TEST RANGE (AFETR)
Your satellite tracking list
Your tracking list is empty




NASA's NSSDC Master Catalog

Two Line Element Set (TLE):
1 03289U 68050F   23270.54118234 -.00000074  00000-0  00000-0 0  9995
2 03289   4.9992  61.0798 0046366 109.3041 220.2998  1.07287262 39987
Source of the keplerian elements: AFSPC